• In Austria
  • List of Countries
  • For 7 days
  • Water Temperature
  • Satellite Maps
  • Weather Map
  • News
  • Weather Widgets
  • user-avatar
    Login

    Hourly Weather Makadi Bey

    Today, 17 December, Sunday

    Time Temperature Precipitation Wind Pressure Humidity
    00:00 +14°C° 0 mm 1 mps 710 mmHg 69%
    01:00 +13°C° 0 mm 1 mps 710 mmHg 67%
    02:00 +13°C° 0 mm 1 mps 709 mmHg 64%
    03:00 +13°C° 0 mm 1 mps 709 mmHg 63%
    04:00 +13°C° 0 mm 1 mps 709 mmHg 61%
    05:00 +12°C° 0 mm 1 mps 709 mmHg 59%
    06:00 +14°C° 0 mm 1 mps 709 mmHg 53%
    07:00 +15°C° 0 mm 1 mps 710 mmHg 46%
    08:00 +18°C° 0 mm 1 mps 710 mmHg 40%
    09:00 +20°C° 0 mm 1 mps 710 mmHg 35%
    10:00 +20°C° 0 mm 2 mps 711 mmHg 30%
    11:00 +23°C° 0 mm 2 mps 711 mmHg 25%
    12:00 +24°C° 0 mm 2 mps 710 mmHg 24%
    13:00 +25°C° 0 mm 2 mps 710 mmHg 23%
    14:00 +25°C° 0 mm 2 mps 710 mmHg 21%
    15:00 +24°C° 0 mm 2 mps 710 mmHg 25%
    16:00 +21°C° 0 mm 2 mps 709 mmHg 30%
    17:00 +21°C° 0 mm 1 mps 709 mmHg 34%
    18:00 +20°C° 0 mm 1 mps 709 mmHg 38%
    19:00 +19°C° 0 mm 1 mps 709 mmHg 42%
    20:00 +18°C° 0 mm 1 mps 710 mmHg 46%
    21:00 +18°C° 0 mm 1 mps 710 mmHg 47%
    22:00 +16°C° 0 mm 1 mps 710 mmHg 47%
    23:00 +16°C° 0 mm 1 mps 710 mmHg 48%

    Tomorrow, 18 December, Monday

    Time Temperature Precipitation Wind Pressure Humidity
    00:00 +16°C° 0 mm 1 mps 710 mmHg 46%
    01:00 +15°C° 0 mm 1 mps 710 mmHg 45%
    02:00 +15°C° 0 mm 1 mps 710 mmHg 43%
    03:00 +15°C° 0 mm 1 mps 709 mmHg 42%
    04:00 +15°C° 0 mm 1 mps 709 mmHg 40%
    05:00 +15°C° 0 mm 1 mps 709 mmHg 39%
    06:00 +16°C° 0 mm 1 mps 710 mmHg 35%
    07:00 +18°C° 0 mm 2 mps 710 mmHg 31%
    08:00 +19°C° 0 mm 2 mps 711 mmHg 27%
    09:00 +21°C° 0 mm 2 mps 711 mmHg 24%
    10:00 +24°C° 0 mm 3 mps 711 mmHg 20%
    11:00 +26°C° 0 mm 3 mps 711 mmHg 17%
    12:00 +26°C° 0 mm 4 mps 711 mmHg 16%
    13:00 +26°C° 0 mm 4 mps 710 mmHg 16%
    14:00 +27°C° 0 mm 4 mps 710 mmHg 16%
    15:00 +25°C° 0 mm 3 mps 709 mmHg 18%
    16:00 +24°C° 0 mm 3 mps 709 mmHg 20%
    17:00 +21°C° 0 mm 2 mps 709 mmHg 23%
    18:00 +21°C° 0 mm 2 mps 709 mmHg 24%
    19:00 +20°C° 0 mm 2 mps 709 mmHg 25%
    20:00 +19°C° 0 mm 2 mps 709 mmHg 26%
    21:00 +19°C° 0 mm 2 mps 709 mmHg 26%
    22:00 +19°C° 0 mm 2 mps 709 mmHg 25%
    23:00 +18°C° 0 mm 2 mps 709 mmHg 25%

    Day after tomorrow, 19 December, Tuesday

    Time Temperature Precipitation Wind Pressure Humidity
    00:00 +18°C° 0 mm 2 mps 709 mmHg 25%
    01:00 +17°C° 0 mm 2 mps 709 mmHg 25%
    02:00 +17°C° 0 mm 2 mps 709 mmHg 25%
    03:00 +17°C° 0 mm 2 mps 708 mmHg 26%
    04:00 +16°C° 0 mm 2 mps 708 mmHg 28%
    05:00 +16°C° 0 mm 2 mps 708 mmHg 29%
    06:00 +17°C° 0 mm 2 mps 709 mmHg 28%
    07:00 +18°C° 0 mm 2 mps 709 mmHg 26%
    08:00 +20°C° 0 mm 2 mps 710 mmHg 25%
    09:00 +23°C° 0 mm 2 mps 710 mmHg 22%
    10:00 +25°C° 0 mm 2 mps 710 mmHg 19%
    11:00 +27°C° 0 mm 3 mps 711 mmHg 17%
    12:00 +27°C° 0 mm 3 mps 710 mmHg 17%
    13:00 +27°C° 0 mm 3 mps 709 mmHg 17%
    14:00 +28°C° 0 mm 3 mps 709 mmHg 17%
    15:00 +26°C° 0 mm 3 mps 709 mmHg 21%
    16:00 +24°C° 0 mm 3 mps 708 mmHg 24%
    17:00 +23°C° 0 mm 2 mps 708 mmHg 28%
    18:00 +21°C° 0 mm 2 mps 708 mmHg 31%
    19:00 +20°C° 0 mm 2 mps 709 mmHg 34%
    20:00 +19°C° 0 mm 2 mps 709 mmHg 37%
    21:00 +19°C° 0 mm 2 mps 709 mmHg 38%
    22:00 +18°C° 0 mm 2 mps 709 mmHg 39%
    23:00 +19°C° 0 mm 1 mps 709 mmHg 40%

    20 December, Wednesday

    Time Temperature Precipitation Wind Pressure Humidity
    00:00 +18°C° 0 mm 1 mps 708 mmHg 39%
    01:00 +18°C° 0 mm 1 mps 708 mmHg 38%
    02:00 +16°C° 0 mm 1 mps 708 mmHg 37%
    03:00 +16°C° 0 mm 1 mps 708 mmHg 37%
    04:00 +15°C° 0 mm 1 mps 708 mmHg 36%
    05:00 +15°C° 0 mm 1 mps 708 mmHg 35%
    06:00 +18°C° 0 mm 1 mps 708 mmHg 33%
    07:00 +19°C° 0 mm 1 mps 709 mmHg 30%
    08:00 +21°C° 0 mm 1 mps 710 mmHg 27%
    09:00 +23°C° 0 mm 2 mps 710 mmHg 24%
    10:00 +25°C° 0 mm 2 mps 710 mmHg 20%
    11:00 +27°C° 0 mm 3 mps 710 mmHg 17%
    12:00 +27°C° 0 mm 3 mps 710 mmHg 17%
    13:00 +28°C° 0 mm 3 mps 709 mmHg 17%
    14:00 +28°C° 0 mm 3 mps 709 mmHg 17%
    15:00 +27°C° 0 mm 2 mps 709 mmHg 22%
    16:00 +25°C° 0 mm 2 mps 708 mmHg 27%
    17:00 +23°C° 0 mm 2 mps 708 mmHg 32%
    18:00 +21°C° 0 mm 2 mps 709 mmHg 37%
    19:00 +21°C° 0 mm 1 mps 709 mmHg 43%
    20:00 +20°C° 0 mm 1 mps 709 mmHg 48%
    21:00 +20°C° 0 mm 1 mps 709 mmHg 51%
    22:00 +19°C° 0 mm 1 mps 709 mmHg 53%
    23:00 +19°C° 0 mm 1 mps 709 mmHg 55%

    21 December, Thursday

    Time Temperature Precipitation Wind Pressure Humidity
    00:00 +18°C° 0 mm 1 mps 709 mmHg 56%
    01:00 +18°C° 0 mm 1 mps 709 mmHg 57%
    02:00 +16°C° 0 mm 1 mps 708 mmHg 58%
    03:00 +16°C° 0 mm 1 mps 709 mmHg 60%
    04:00 +16°C° 0 mm 1 mps 709 mmHg 62%
    05:00 +15°C° 0 mm 1 mps 709 mmHg 64%
    06:00 +17°C° 0 mm 2 mps 709 mmHg 60%
    07:00 +18°C° 0 mm 2 mps 710 mmHg 57%
    08:00 +19°C° 0 mm 2 mps 710 mmHg 54%
    09:00 +20°C° 0 mm 2 mps 710 mmHg 49%
    10:00 +23°C° 0 mm 2 mps 710 mmHg 44%
    11:00 +25°C° 0 mm 2 mps 710 mmHg 39%
    12:00 +25°C° 0 mm 2 mps 710 mmHg 38%
    13:00 +26°C° 0 mm 2 mps 710 mmHg 36%
    14:00 +26°C° 0 mm 2 mps 709 mmHg 34%
    15:00 +25°C° 0 mm 1 mps 709 mmHg 38%
    16:00 +24°C° 0 mm 1 mps 709 mmHg 42%
    17:00 +23°C° 0 mm 1 mps 709 mmHg 46%
    18:00 +22°C° 0 mm 1 mps 709 mmHg 52%
    19:00 +21°C° 0 mm 1 mps 709 mmHg 57%
    20:00 +20°C° 0 mm 1 mps 709 mmHg 63%
    21:00 +19°C° 0 mm 1 mps 709 mmHg 65%
    22:00 +19°C° 0 mm 1 mps 709 mmHg 68%
    23:00 +18°C° 0 mm 1 mps 709 mmHg 71%

    22 December, Friday

    Time Temperature Precipitation Wind Pressure Humidity
    00:00 +18°C° 0 mm 1 mps 709 mmHg 71%
    01:00 +18°C° 0 mm 1 mps 708 mmHg 71%
    02:00 +16°C° 0 mm 1 mps 708 mmHg 71%
    03:00 +16°C° 0 mm 1 mps 708 mmHg 71%
    04:00 +16°C° 0 mm 1 mps 708 mmHg 70%
    05:00 +15°C° 0 mm 1 mps 708 mmHg 70%
    06:00 +18°C° 0 mm 1 mps 708 mmHg 65%
    07:00 +19°C° 0 mm 1 mps 709 mmHg 60%
    08:00 +19°C° 0 mm 2 mps 709 mmHg 54%
    09:00 +20°C° 0 mm 2 mps 709 mmHg 49%
    10:00 +21°C° 0 mm 2 mps 709 mmHg 43%
    11:00 +24°C° 0 mm 2 mps 709 mmHg 38%
    12:00 +24°C° 0 mm 3 mps 709 mmHg 35%
    13:00 +25°C° 0 mm 3 mps 709 mmHg 32%
    14:00 +26°C° 0 mm 3 mps 708 mmHg 30%
    15:00 +24°C° 0 mm 3 mps 708 mmHg 32%
    16:00 +22°C° 0 mm 3 mps 708 mmHg 35%
    17:00 +21°C° 0 mm 3 mps 708 mmHg 37%
    18:00 +20°C° 0 mm 4 mps 708 mmHg 40%
    19:00 +19°C° 0 mm 4 mps 708 mmHg 43%
    20:00 +19°C° 0 mm 4 mps 709 mmHg 46%
    21:00 +18°C° 0 mm 4 mps 709 mmHg 48%
    22:00 +17°C° 0 mm 4 mps 709 mmHg 49%
    23:00 +17°C° 0 mm 4 mps 709 mmHg 50%
    Show more